Tracking 20942 objects as of 14-Jul-2020
HD Live streaming from Space Station
objects crossing your sky now

COSMOS 1197

Track COSMOS 1197 now!
10-day predictions
COSMOS 1197 is classified as:


NORAD ID: 11880
Int'l Code: 1980-058F
Perigee: 1,478.3 km
Apogee: 1,498.7 km
Inclination: 74.0 °
Period: 115.6 minutes
Semi major axis: 7859 km
RCS: 0.6693 m2 (medium)
Launch date: July 9, 1980
Source: Commonwealth of Independent States (former USSR) (CIS)
Launch site: PLESETSK MISSILE AND SPACE COMPLEX (PKMTR)
aabbcc
Your satellite tracking list
Your tracking list is empty




NASA's NSSDC Master Catalog

Two Line Element Set (TLE):
1 11880U 80058F   20195.49499918 -.00000013  00000-0  17754-4 0  9992
2 11880  74.0178 100.2637 0012975  47.9864 312.2287 12.45973232820179
Source of the keplerian elements: AFSPC